Change the Weather History Date:

Sunday, March 31, 2013

  Actual Average Record
Temperature  
Mean Temperature 42 °F -  
Max Temperature 48 °F 52 °F 82 °F (1986)
Min Temperature 37 °F 29 °F 13 °F (1991)
Degree Days  
Heating Degree Days 22    
Moisture  
Dew Point 28 °F    
Average Humidity 64    
Maximum Humidity 93    
Minimum Humidity 42    
Precipitation  
Precipitation 0.02 in - - ()
Sea Level Pressure  
Sea Level Pressure 29.79 in    
Wind  
Wind Speed 8 mph (South)    
Max Wind Speed 15 mph    
Max Gust Speed 24 mph    
Visibility 10 miles    
Events      
Averages and records for this station are not official NWS values.
T = Trace of Precipitation, MM = Missing Value Source: NWS Daily Summary

Daily Weather History Graph

Daily Weather History Graph

Search for Another Location

Airport or City:

Trip Planner

Search our weather history database for the weather conditions in past years. The results will help you decide how hot, cold, wet, or windy it might be!

Date:

Astronomy

Mar. 31, 2013 Rise Set
Actual Time 7:00 AM EDT 7:41 PM EDT
Civil Twilight 6:32 AM EDT 8:10 PM EDT
Nautical Twilight 5:59 AM EDT 8:43 PM EDT
Astronomical Twilight 5:24 AM EDT 9:18 PM EDT
Moon No Moon Rise 9:42 AM EDT (3/31)
Length of Visible Light 13h 37m
Length of Day
12h 40m
Waning Gibbous, 78% of the Moon is Illuminated
Mar 31
Waning Gibbous
Apr 3
Last Quarter
Apr 10
New
Apr 18
First Quarter
Apr 25
Full

Hourly Weather History & Observations

Time (EDT) Temp. Windchill Dew Point Humidity Pressure Visibility Wind Dir Wind Speed Gust Speed Precip Events Conditions
12:15 AM 37.4 °F 32.1 °F 19.4 °F 48% 30.02 in 10.0 mi South 6.9 mph - N/A   Clear
12:35 AM 37.4 °F 32.1 °F 19.4 °F 48% 30.01 in 10.0 mi South 6.9 mph - N/A   Clear
12:55 AM 37.4 °F 32.8 °F 19.4 °F 48% 30.00 in 10.0 mi South 5.8 mph - N/A   Clear
1:15 AM 37.4 °F 32.1 °F 19.4 °F 48% 29.99 in 10.0 mi South 6.9 mph - N/A   Clear
1:35 AM 37.4 °F 32.1 °F 19.4 °F 48% 29.99 in 10.0 mi South 6.9 mph - N/A   Clear
1:55 AM 37.4 °F 32.8 °F 19.4 °F 48% 29.98 in 10.0 mi South 5.8 mph - N/A   Clear
2:15 AM 37.4 °F 32.8 °F 19.4 °F 48% 29.97 in 10.0 mi South 5.8 mph - N/A   Clear
2:35 AM 37.4 °F 32.8 °F 19.4 °F 48% 29.97 in 10.0 mi South 5.8 mph - N/A   Clear
2:55 AM 37.4 °F 32.8 °F 19.4 °F 48% 29.96 in 10.0 mi South 5.8 mph - N/A   Clear
3:15 AM 37.4 °F 32.1 °F 19.4 °F 48% 29.95 in 10.0 mi South 6.9 mph - N/A   Clear
3:35 AM 37.4 °F 32.1 °F 19.4 °F 48% 29.94 in 10.0 mi South 6.9 mph - N/A   Clear
3:55 AM 37.4 °F 32.8 °F 19.4 °F 48% 29.93 in 10.0 mi South 5.8 mph - N/A   Clear
4:15 AM 37.4 °F 32.1 °F 19.4 °F 48% 29.92 in 10.0 mi South 6.9 mph - N/A   Clear
4:35 AM 37.4 °F 32.1 °F 19.4 °F 48% 29.91 in 10.0 mi South 6.9 mph - N/A   Clear
4:55 AM 37.4 °F 30.8 °F 19.4 °F 48% 29.90 in 10.0 mi South 9.2 mph - N/A   Clear
5:15 AM 37.4 °F 32.1 °F 19.4 °F 48% 29.89 in 10.0 mi South 6.9 mph - N/A   Partly Cloudy
5:35 AM 37.4 °F 30.8 °F 19.4 °F 48% 29.88 in 10.0 mi South 9.2 mph - N/A   Partly Cloudy
5:55 AM 37.4 °F 30.8 °F 19.4 °F 48% 29.87 in 10.0 mi South 9.2 mph - N/A   Partly Cloudy
6:15 AM 37.4 °F 30.3 °F 19.4 °F 48% 29.87 in 10.0 mi South 10.4 mph - N/A   Clear
6:35 AM 37.4 °F 30.8 °F 19.4 °F 48% 29.86 in 10.0 mi South 9.2 mph - N/A   Clear
6:55 AM 39.2 °F 31.6 °F 17.6 °F 42% 29.86 in 10.0 mi South 12.7 mph - N/A   Clear
7:15 AM 39.2 °F 32.5 °F 17.6 °F 42% 29.86 in 10.0 mi South 10.4 mph - N/A   Clear
7:35 AM 39.2 °F 33.0 °F 17.6 °F 42% 29.85 in 10.0 mi South 9.2 mph - N/A   Clear
7:55 AM 39.2 °F 32.5 °F 19.4 °F 45% 29.85 in 10.0 mi South 10.4 mph - N/A   Clear
8:15 AM 39.2 °F 32.5 °F 19.4 °F 45% 29.84 in 10.0 mi South 10.4 mph - N/A   Clear
8:35 AM 39.2 °F 32.0 °F 19.4 °F 45% 29.83 in 10.0 mi South 11.5 mph 17.3 mph N/A   Clear
8:55 AM 41.0 °F 34.7 °F 21.2 °F 45% 29.82 in 10.0 mi South 10.4 mph - N/A   Clear
9:15 AM 41.0 °F 35.2 °F 21.2 °F 45% 29.81 in 10.0 mi South 9.2 mph 17.3 mph N/A   Clear
9:35 AM 42.8 °F 36.6 °F 21.2 °F 42% 29.80 in 10.0 mi South 11.5 mph 16.1 mph N/A   Clear
9:55 AM 42.8 °F 37.0 °F 21.2 °F 42% 29.79 in 10.0 mi South 10.4 mph 16.1 mph N/A   Clear
10:15 AM 42.8 °F 36.6 °F 23.0 °F 46% 29.79 in 5.0 mi SSE 11.5 mph - N/A   Partly Cloudy
10:35 AM 44.6 °F 39.2 °F 24.8 °F 46% 29.78 in 10.0 mi South 10.4 mph - N/A   Scattered Clouds
10:55 AM 44.6 °F 39.7 °F 24.8 °F 46% 29.78 in 10.0 mi South 9.2 mph - N/A   Mostly Cloudy
11:15 AM 46.4 °F 41.9 °F 24.8 °F 43% 29.77 in 10.0 mi South 9.2 mph 16.1 mph N/A   Overcast
11:35 AM 46.4 °F 40.7 °F 26.6 °F 46% 29.76 in 10.0 mi SSW 12.7 mph 17.3 mph N/A   Overcast
11:55 AM 48.2 °F - 26.6 °F 43% 29.76 in 10.0 mi South 13.8 mph 20.7 mph N/A   Overcast
12:15 PM 48.2 °F - 26.6 °F 43% 29.75 in 10.0 mi South 11.5 mph 19.6 mph N/A   Overcast
12:35 PM 48.2 °F - 26.6 °F 43% 29.74 in 10.0 mi South 11.5 mph 21.9 mph N/A   Overcast
12:55 PM 48.2 °F - 26.6 °F 43% 29.74 in 10.0 mi South 15.0 mph 23.0 mph N/A   Overcast
1:15 PM 48.2 °F - 28.4 °F 46% 29.74 in 10.0 mi SW 12.7 mph 21.9 mph N/A   Overcast
1:35 PM 46.4 °F 40.7 °F 30.2 °F 53% 29.73 in 10.0 mi SSW 12.7 mph 24.2 mph N/A   Overcast
1:55 PM 44.6 °F 38.1 °F 33.8 °F 66% 29.73 in 10.0 mi SSW 13.8 mph 23.0 mph N/A   Overcast
2:15 PM 42.8 °F 36.2 °F 35.6 °F 76% 29.73 in 10.0 mi South 12.7 mph - N/A   Overcast
2:35 PM 42.8 °F 37.0 °F 37.4 °F 81% 29.73 in 10.0 mi SSW 10.4 mph - N/A   Overcast
2:55 PM 42.8 °F 37.0 °F 37.4 °F 81% 29.72 in 10.0 mi South 10.4 mph - N/A   Overcast
3:15 PM 41.0 °F 35.2 °F 37.4 °F 87% 29.71 in 9.0 mi South 9.2 mph - N/A   Overcast
3:35 PM 41.0 °F 35.2 °F 37.4 °F 87% 29.70 in 10.0 mi South 9.2 mph - N/A   Mostly Cloudy
3:55 PM 41.0 °F 35.8 °F 37.4 °F 87% 29.70 in 10.0 mi South 8.1 mph - N/A   Overcast
4:15 PM 41.0 °F 37.1 °F 37.4 °F 87% 29.70 in 10.0 mi South 5.8 mph - N/A   Overcast
4:35 PM 41.0 °F 36.4 °F 39.2 °F 93% 29.69 in 9.0 mi South 6.9 mph - N/A   Overcast
4:55 PM 41.0 °F 35.8 °F 39.2 °F 93% 29.68 in 10.0 mi South 8.1 mph - N/A   Overcast
5:15 PM 41.0 °F 35.8 °F 37.4 °F 87% 29.68 in 10.0 mi South 8.1 mph - N/A   Overcast
5:35 PM 41.0 °F 35.8 °F 39.2 °F 93% 29.68 in 10.0 mi SSW 8.1 mph - N/A   Overcast
5:55 PM 41.0 °F 35.8 °F 39.2 °F 93% 29.67 in 10.0 mi South 8.1 mph - N/A   Mostly Cloudy
6:15 PM 41.0 °F 35.8 °F 37.4 °F 87% 29.67 in 10.0 mi South 8.1 mph - N/A   Overcast
6:35 PM 41.0 °F 35.2 °F 37.4 °F 87% 29.67 in 10.0 mi South 9.2 mph - N/A   Overcast
6:55 PM 41.0 °F 36.4 °F 37.4 °F 87% 29.67 in 10.0 mi South 6.9 mph - N/A   Overcast
7:15 PM 39.2 °F 34.2 °F 37.4 °F 93% 29.67 in 10.0 mi South 6.9 mph - N/A   Overcast
7:35 PM 39.2 °F 34.2 °F 37.4 °F 93% 29.67 in 10.0 mi SSW 6.9 mph - N/A   Overcast
7:55 PM 41.0 °F 35.8 °F 37.4 °F 87% 29.67 in 10.0 mi South 8.1 mph - N/A   Overcast
8:15 PM 41.0 °F 36.4 °F 37.4 °F 87% 29.66 in 10.0 mi South 6.9 mph - N/A   Overcast
8:35 PM 41.0 °F 37.1 °F 39.2 °F 93% 29.67 in 9.0 mi SSW 5.8 mph - N/A   Overcast
8:55 PM 41.0 °F 34.7 °F 37.4 °F 87% 29.68 in 9.0 mi WSW 10.4 mph - 0.02 in   Overcast
9:15 PM 41.0 °F 37.1 °F 39.2 °F 93% 29.68 in 10.0 mi SW 5.8 mph - N/A   Overcast
9:35 PM 41.0 °F 36.4 °F 39.2 °F 93% 29.68 in 10.0 mi SSW 6.9 mph - N/A   Overcast
9:55 PM 41.0 °F 35.8 °F 39.2 °F 93% 29.68 in 10.0 mi SW 8.1 mph - N/A   Overcast
10:15 PM 41.0 °F 35.8 °F 37.4 °F 87% 29.68 in 8.0 mi SW 8.1 mph - N/A   Overcast
10:35 PM 41.0 °F 36.4 °F 39.2 °F 93% 29.68 in 7.0 mi SSW 6.9 mph - N/A   Overcast
11:15 PM 39.2 °F 33.0 °F 37.4 °F 93% 29.66 in 6.0 mi SSW 9.2 mph - N/A   Overcast
11:35 PM 39.2 °F 33.0 °F 37.4 °F 93% 29.65 in 7.0 mi SSW 9.2 mph - N/A   Mostly Cloudy
11:55 PM 39.2 °F 33.0 °F 37.4 °F 93% 29.64 in 7.0 mi SSW 9.2 mph - N/A   Clear